When you browse on this site, cookies collect data to enhance your experience and personalize the content and advertising you see.
Visit our Privacy Policy to learn more. By continuing to use the site, you agree to this use of cookies and data.

Hourly Weather Ischgl

Today, 6 August, Thursday

Time Temperature Precipitation Wind Pressure Humidity
00:00 +3°C° 0 mm 0 mps 575 mmHg 94%
01:00 +3°C° 0 mm 0 mps 575 mmHg 94%
02:00 +3°C° 0 mm 0 mps 575 mmHg 93%
03:00 +2°C° 0 mm 0 mps 575 mmHg 92%
04:00 +2°C° 0 mm 0 mps 575 mmHg 91%
05:00 +4°C° 0 mm 0 mps 576 mmHg 84%
06:00 +6°C° 0 mm 0 mps 577 mmHg 77%
07:00 +8°C° 0 mm 0 mps 578 mmHg 71%
08:00 +10°C° 0 mm 0 mps 579 mmHg 62%
09:00 +13°C° 0 mm 1 mps 580 mmHg 54%
10:00 +15°C° 0 mm 1 mps 581 mmHg 46%
11:00 +16°C° 0 mm 1 mps 581 mmHg 44%
12:00 +18°C° 0 mm 1 mps 582 mmHg 43%
13:00 +19°C° 0 mm 1 mps 582 mmHg 41%
14:00 +18°C° 0 mm 2 mps 582 mmHg 44%
15:00 +18°C° 0 mm 2 mps 582 mmHg 47%
16:00 +18°C° 0 mm 2 mps 582 mmHg 49%
17:00 +16°C° 0.1 mm 2 mps 581 mmHg 61%
18:00 +14°C° 0.1 mm 2 mps 581 mmHg 72%
19:00 +13°C° 0.1 mm 2 mps 580 mmHg 84%
20:00 +11°C° 0 mm 1 mps 579 mmHg 88%
21:00 +9°C° 0 mm 1 mps 579 mmHg 93%
22:00 +7°C° 0 mm 0 mps 578 mmHg 97%
23:00 +6°C° 0 mm 0 mps 578 mmHg 97%

Tomorrow, 7 August, Friday

Time Temperature Precipitation Wind Pressure Humidity
00:00 +6°C° 0 mm 0 mps 578 mmHg 96%
01:00 +6°C° 0 mm 0 mps 578 mmHg 96%
02:00 +5°C° 0 mm 0 mps 577 mmHg 96%
03:00 +5°C° 0 mm 0 mps 577 mmHg 95%
04:00 +5°C° 0 mm 0 mps 577 mmHg 95%
05:00 +7°C° 0 mm 0 mps 578 mmHg 89%
06:00 +9°C° 0 mm 0 mps 579 mmHg 84%
07:00 +10°C° 0 mm 0 mps 580 mmHg 79%
08:00 +12°C° 0 mm 0 mps 581 mmHg 67%
09:00 +14°C° 0 mm 0 mps 582 mmHg 56%
10:00 +18°C° 0 mm 1 mps 583 mmHg 45%
11:00 +19°C° 0 mm 1 mps 583 mmHg 42%
12:00 +19°C° 0 mm 1 mps 583 mmHg 40%
13:00 +20°C° 0 mm 1 mps 584 mmHg 38%
14:00 +19°C° 0.1 mm 2 mps 583 mmHg 42%
15:00 +19°C° 0.1 mm 2 mps 583 mmHg 45%
16:00 +18°C° 0.1 mm 2 mps 583 mmHg 49%
17:00 +17°C° 0.4 mm 2 mps 582 mmHg 61%
18:00 +15°C° 0.4 mm 1 mps 582 mmHg 74%
19:00 +13°C° 0.4 mm 1 mps 581 mmHg 86%
20:00 +12°C° 0.2 mm 1 mps 580 mmHg 89%
21:00 +10°C° 0.2 mm 1 mps 580 mmHg 91%
22:00 +8°C° 0.2 mm 0 mps 579 mmHg 94%
23:00 +7°C° 0 mm 0 mps 579 mmHg 93%

Day after tomorrow, 8 August, Saturday

Time Temperature Precipitation Wind Pressure Humidity
00:00 +8°C° 0 mm 1 mps 579 mmHg 93%
01:00 +8°C° 0 mm 1 mps 578 mmHg 92%
02:00 +7°C° 0 mm 1 mps 578 mmHg 92%
03:00 +7°C° 0 mm 1 mps 578 mmHg 92%
04:00 +7°C° 0 mm 1 mps 578 mmHg 92%
05:00 +8°C° 0 mm 0 mps 579 mmHg 87%
06:00 +9°C° 0 mm 0 mps 580 mmHg 82%
07:00 +11°C° 0 mm 0 mps 581 mmHg 77%
08:00 +13°C° 0 mm 0 mps 581 mmHg 67%
09:00 +15°C° 0 mm 1 mps 582 mmHg 56%
10:00 +18°C° 0 mm 1 mps 583 mmHg 45%
11:00 +19°C° 0 mm 1 mps 583 mmHg 42%
12:00 +20°C° 0 mm 1 mps 583 mmHg 39%
13:00 +20°C° 0 mm 2 mps 583 mmHg 37%
14:00 +19°C° 0 mm 2 mps 583 mmHg 39%
15:00 +19°C° 0 mm 2 mps 583 mmHg 40%
16:00 +19°C° 0 mm 2 mps 583 mmHg 42%
17:00 +18°C° 0 mm 2 mps 582 mmHg 53%
18:00 +16°C° 0 mm 2 mps 581 mmHg 64%
19:00 +14°C° 0 mm 1 mps 581 mmHg 75%
20:00 +13°C° 0 mm 1 mps 580 mmHg 81%
21:00 +11°C° 0 mm 1 mps 579 mmHg 86%
22:00 +8°C° 0 mm 0 mps 579 mmHg 91%
23:00 +8°C° 0 mm 0 mps 578 mmHg 91%

9 August, Sunday

Time Temperature Precipitation Wind Pressure Humidity
00:00 +7°C° 0 mm 0 mps 578 mmHg 91%
01:00 +7°C° 0 mm 0 mps 578 mmHg 91%
02:00 +7°C° 0 mm 0 mps 578 mmHg 91%
03:00 +8°C° 0 mm 1 mps 577 mmHg 91%
04:00 +7°C° 0 mm 1 mps 577 mmHg 90%
05:00 +9°C° 0 mm 1 mps 578 mmHg 85%
06:00 +11°C° 0 mm 1 mps 579 mmHg 80%
07:00 +12°C° 0 mm 0 mps 580 mmHg 74%
08:00 +14°C° 0 mm 1 mps 581 mmHg 64%
09:00 +16°C° 0 mm 1 mps 582 mmHg 53%
10:00 +19°C° 0 mm 1 mps 582 mmHg 42%
11:00 +20°C° 0 mm 1 mps 583 mmHg 39%
12:00 +20°C° 0 mm 1 mps 583 mmHg 36%
13:00 +20°C° 0 mm 2 mps 583 mmHg 33%
14:00 +20°C° 0 mm 2 mps 583 mmHg 35%
15:00 +20°C° 0 mm 2 mps 582 mmHg 37%
16:00 +20°C° 0 mm 2 mps 582 mmHg 39%
17:00 +18°C° 0 mm 2 mps 581 mmHg 50%
18:00 +16°C° 0 mm 2 mps 580 mmHg 61%
19:00 +14°C° 0 mm 1 mps 580 mmHg 72%
20:00 +13°C° 0 mm 1 mps 579 mmHg 77%
21:00 +11°C° 0 mm 1 mps 578 mmHg 83%
22:00 +8°C° 0 mm 0 mps 577 mmHg 88%
23:00 +8°C° 0 mm 0 mps 577 mmHg 88%

10 August, Monday

Time Temperature Precipitation Wind Pressure Humidity
00:00 +8°C° 0 mm 0 mps 577 mmHg 88%
01:00 +7°C° 0 mm 0 mps 577 mmHg 88%
02:00 +7°C° 0 mm 0 mps 577 mmHg 88%
03:00 +7°C° 0 mm 0 mps 577 mmHg 87%
04:00 +7°C° 0 mm 1 mps 576 mmHg 87%
05:00 +8°C° 0 mm 0 mps 577 mmHg 82%
06:00 +10°C° 0 mm 0 mps 578 mmHg 76%
07:00 +12°C° 0 mm 0 mps 579 mmHg 70%
08:00 +15°C° 0 mm 1 mps 580 mmHg 61%
09:00 +18°C° 0 mm 1 mps 581 mmHg 52%
10:00 +19°C° 0 mm 1 mps 582 mmHg 43%
11:00 +20°C° 0 mm 1 mps 582 mmHg 41%
12:00 +21°C° 0 mm 1 mps 582 mmHg 38%
13:00 +21°C° 0 mm 2 mps 582 mmHg 35%
14:00 +20°C° 0 mm 2 mps 582 mmHg 37%
15:00 +20°C° 0 mm 2 mps 582 mmHg 39%
16:00 +20°C° 0 mm 2 mps 582 mmHg 41%
17:00 +18°C° 0.3 mm 2 mps 581 mmHg 53%
18:00 +16°C° 0.3 mm 1 mps 580 mmHg 65%
19:00 +14°C° 0.3 mm 1 mps 579 mmHg 77%
20:00 +13°C° 0.2 mm 1 mps 579 mmHg 80%
21:00 +10°C° 0.2 mm 0 mps 578 mmHg 83%
22:00 +9°C° 0.2 mm 0 mps 578 mmHg 86%
23:00 +9°C° 0 mm 0 mps 578 mmHg 86%

11 August, Tuesday

Time Temperature Precipitation Wind Pressure Humidity
00:00 +9°C° 0 mm 0 mps 578 mmHg 86%
01:00 +9°C° 0 mm 1 mps 578 mmHg 86%
02:00 +8°C° 0 mm 0 mps 577 mmHg 86%
03:00 +8°C° 0 mm 0 mps 577 mmHg 86%
04:00 +8°C° 0 mm 0 mps 577 mmHg 86%
05:00 +9°C° 0 mm 0 mps 578 mmHg 82%
06:00 +11°C° 0 mm 0 mps 579 mmHg 77%
07:00 +12°C° 0 mm 0 mps 580 mmHg 73%
08:00 +14°C° 0.1 mm 0 mps 580 mmHg 67%
09:00 +16°C° 0.1 mm 1 mps 581 mmHg 60%
10:00 +19°C° 0.1 mm 1 mps 582 mmHg 54%
11:00 +19°C° 0.5 mm 1 mps 582 mmHg 53%
12:00 +20°C° 0.5 mm 1 mps 582 mmHg 52%
13:00 +19°C° 0.5 mm 2 mps 582 mmHg 51%
14:00 +18°C° 1.1 mm 2 mps 582 mmHg 57%
15:00 +17°C° 1.1 mm 2 mps 581 mmHg 63%
16:00 +16°C° 1.1 mm 2 mps 581 mmHg 69%
17:00 +15°C° 2.4 mm 2 mps 580 mmHg 76%
18:00 +13°C° 2.4 mm 1 mps 579 mmHg 83%
19:00 +12°C° 2.4 mm 1 mps 579 mmHg 90%
20:00 +11°C° 0.6 mm 1 mps 579 mmHg 90%
21:00 +11°C° 0.6 mm 1 mps 579 mmHg 90%
22:00 +10°C° 0.6 mm 1 mps 579 mmHg 90%
23:00 +10°C° 0 mm 1 mps 578 mmHg 89%
Show more